Kelso, MO

5:27 AM CST on December 10, 2016 (GMT -0600)
Cape Girardeau Regional

Weather History for KCGI - March, 2012

Change the Weather History Date:

Wednesday, March 28, 2012

  Actual Average Record
Temperature  
Mean Temperature 69 °F 51 °F  
Max Temperature 81 °F 63 °F 83 °F (1985)
Min Temperature 56 °F 39 °F 25 °F (2001)
Degree Days  
Heating Degree Days 0 14  
Month to date heating degree days 203 518  
Since 1 July heating degree days 3122 4015  
Cooling Degree Days 4 0  
Month to date cooling degree days 37 0  
Year to date cooling degree days 37 0  
Growing Degree Days 19 (Base 50)    
Moisture  
Dew Point 58 °F    
Average Humidity 71    
Maximum Humidity 93    
Minimum Humidity 49    
Precipitation  
Precipitation 0.00 in 0.15 in 2.43 in (1975)
Month to date precipitation 3.11 3.92  
Year to date precipitation 7.99 10.80  
Sea Level Pressure  
Sea Level Pressure 29.99 in    
Wind  
Wind Speed 5 mph (SW)    
Max Wind Speed 15 mph    
Max Gust Speed 21 mph    
Visibility 10 miles    
Events      
T = Trace of Precipitation, MM = Missing Value Source: NWS Daily Summary

Daily Weather History Graph

Daily Weather History Graph

Search for Another Location

Airport or City:

Trip Planner

Search our weather history database for the weather conditions in past years. The results will help you decide how hot, cold, wet, or windy it might be!

Date:

Astronomy

Mar. 28, 2012 Rise Set
Actual Time 6:49 AM CDT 7:17 PM CDT
Civil Twilight 6:22 AM CDT 7:43 PM CDT
Nautical Twilight 5:52 AM CDT 8:14 PM CDT
Astronomical Twilight 5:20 AM CDT 8:46 PM CDT
Moon 10:12 AM CDT (3/28) 12:13 AM CDT (3/28)
Length of Visible Light 13h 20m
Length of Day
12h 28m
Waxing Crescent, 30% of the Moon is Illuminated
Mar 28
Waxing Crescent
Mar 30
First Quarter
Apr 6
Full
Apr 13
Last Quarter
Apr 21
New

Hourly Weather History & Observations

Time (CDT) Temp. Heat Index Dew Point Humidity Pressure Visibility Wind Dir Wind Speed Gust Speed Precip Events Conditions
12:53 AM 66.0 °F - 57.0 °F 73% 29.99 in 10.0 mi South 3.5 mph - N/A   Clear
1:53 AM 64.0 °F - 57.0 °F 78% 30.00 in 10.0 mi Calm Calm - N/A   Clear
2:53 AM 59.0 °F - 55.0 °F 87% 30.00 in 9.0 mi South 3.5 mph - N/A   Clear
3:53 AM 57.0 °F - 54.0 °F 89% 30.00 in 8.0 mi Calm Calm - N/A   Clear
4:53 AM 57.0 °F - 55.0 °F 93% 30.00 in 8.0 mi Calm Calm - N/A   Clear
5:53 AM 59.0 °F - 55.0 °F 87% 30.00 in 10.0 mi South 4.6 mph - N/A   Clear
6:53 AM 57.9 °F - 54.0 °F 87% 30.02 in 10.0 mi Calm Calm - N/A   Clear
7:53 AM 60.1 °F - 55.9 °F 86% 30.03 in 8.0 mi Calm Calm - N/A   Clear
8:53 AM 66.9 °F - 59.0 °F 76% 30.04 in 10.0 mi WSW 9.2 mph - N/A   Mostly Cloudy
9:53 AM 68.0 °F - 59.0 °F 73% 30.04 in 10.0 mi WSW 10.4 mph - N/A   Mostly Cloudy
10:53 AM 73.9 °F - 61.0 °F 64% 30.04 in 10.0 mi WSW 11.5 mph - N/A   Scattered Clouds
11:53 AM 77.0 °F - 61.0 °F 58% 30.02 in 10.0 mi WSW 10.4 mph - N/A   Clear
12:53 PM 79.0 °F - 61.0 °F 54% 30.00 in 10.0 mi WSW 5.8 mph - N/A   Clear
1:53 PM 81.0 °F 81.6 °F 60.1 °F 49% 29.98 in 10.0 mi WSW 11.5 mph - N/A   Mostly Cloudy
2:53 PM 80.1 °F 80.7 °F 59.0 °F 48% 29.96 in 10.0 mi SW 6.9 mph - N/A   Scattered Clouds
3:53 PM 78.1 °F - 60.1 °F 54% 29.95 in 10.0 mi SW 6.9 mph - N/A   Mostly Cloudy
4:53 PM 79.0 °F - 61.0 °F 54% 29.92 in 10.0 mi WSW 5.8 mph - N/A   Clear
5:53 PM 78.1 °F - 59.0 °F 52% 29.93 in 10.0 mi SSW 10.4 mph - N/A   Partly Cloudy
6:53 PM 75.0 °F - 57.0 °F 53% 29.94 in 10.0 mi SSW 6.9 mph - N/A   Clear
7:53 PM 73.0 °F - 59.0 °F 61% 29.94 in 10.0 mi ENE 6.9 mph - N/A   Overcast
8:53 PM 71.1 °F - 57.0 °F 61% 29.96 in 10.0 mi North 5.8 mph - N/A   Scattered Clouds
9:53 PM 66.0 °F - 59.0 °F 78% 29.96 in 10.0 mi Calm Calm - N/A   Clear
10:53 PM 64.0 °F - 57.9 °F 80% 29.97 in 10.0 mi Calm Calm - N/A   Clear
11:53 PM 63.0 °F - 59.0 °F 87% 29.96 in 10.0 mi East 4.6 mph - N/A   Clear